This demonstration page uses our WeatherBlox Daily Observations layout. Learn more.

Left ArrowRight Arrow

39.92423, -83.80882

Hourly Observations for January 25, 2019

Temp ( °F °C ) Dew Point ( °F °C ) Humidity (%) Winds ( mph kmh ) Pressure ( in mb ) Visibility ( mi km ) Precip ( " mm )
12:56 am 00:56 Windy with Snow Likely 24 -4.4 19 -7.2 81 81 W 24 39 30.04 1017 8 13 N/A
1:24 am 01:24 Windy with Snow Likely 21 -6 19 -7 93 93 WNW 21 33 30.09 1019 6 10 N/A
1:56 am 01:56 Windy with Snow Likely 21 -6.1 18 -7.8 88 88 W 21 33 30.07 1018 7 11 N/A
2:48 am 02:48 Partly Cloudy with Scattered Snow Showers 18 -8 12 -11 79 79 W 21 33 30.12 1020 9 14 N/A
2:56 am 02:56 Partly Cloudy 17 -8.3 12 -11.1 80 80 W 22 35 30.10 1019 10 16 N/A
3:26 am 03:26 Mostly Cloudy 16 -9 10 -12 79 79 WNW 15 24 30.15 1021 10 16 N/A
3:56 am 03:56 Cloudy with Light Snow 14 -10 9 -12.8 80 80 W 16 26 30.13 1020 9 14 N/A
4:18 am 04:18 Partly Cloudy 12 -11 9 -13 85 85 W 17 28 30.21 1023 10 16 N/A
4:56 am 04:56 Partly Cloudy 12 -11.1 8 -13.3 84 84 W 21 33 30.15 1021 10 16 N/A
6:16 am 06:16 Mostly Cloudy 10 -12 5 -15 79 79 W 22 35 30.24 1024 10 16 N/A
6:46 am 06:46 Mostly Clear 9 -13 1 -17 72 72 W 24 39 30.27 1025 10 16 N/A
6:56 am 06:56 Mostly Clear 9 -12.8 1 -17.2 70 70 W 22 35 30.21 1023 10 16 N/A
7:56 am 07:56 Sunny 7 -13.9 1 -17.2 76 76 W 13 20 30.25 1024 10 16 N/A
8:56 am 08:56 Sunny 8 -13.3 1 -17.2 73 73 W 16 26 30.27 1025 10 16 N/A
10:56 am 10:56 Mostly Sunny 11 -11.7 3 -16.1 70 70 W 15 24 30.31 1026 10 16 N/A
11:56 am 11:56 Sunny 13 -10.6 4 -15.6 67 67 W 13 20 30.31 1026 10 16 N/A
12:56 pm 12:56 Sunny 14 -10 5 -15 67 67 WSW 15 24 30.29 1026 10 16 N/A
1:56 pm 13:56 Sunny 17 -8.3 6 -14.4 62 62 WSW 13 20 30.27 1025 10 16 N/A
2:56 pm 14:56 Sunny 18 -7.8 7 -13.9 62 62 WSW 15 24 30.25 1024 10 16 N/A
3:56 pm 15:56 Sunny 19 -7.2 8 -13.3 62 62 WSW 10 17 30.24 1024 10 16 N/A
4:56 pm 16:56 Sunny 19 -7.2 5 -15 54 54 WSW 13 20 30.24 1024 10 16 N/A
5:56 pm 17:56 Mostly Clear 18 -7.8 6 -14.4 59 59 SW 8 13 30.23 1024 10 16 N/A
6:56 pm 18:56 Partly Cloudy 18 -7.8 7 -13.9 62 62 WSW 6 9 30.24 1024 10 16 N/A
7:56 pm 19:56 Cloudy 18 -7.8 9 -12.8 68 68 S 3 6 30.23 1024 10 16 N/A
8:56 pm 20:56 Cloudy 19 -7.2 9 -12.8 65 65 SSW 6 9 30.21 1023 10 16 N/A
9:56 pm 21:56 Cloudy 19 -7.2 9 -12.8 65 65 SW 6 9 30.21 1023 10 16 N/A
10:56 pm 22:56 Cloudy 19 -7.2 10 -12.2 68 68 SSW 5 7 30.20 1023 10 16 N/A
11:56 pm 23:56 Cloudy 21 -6.1 10 -12.2 62 62 WSW 14 22 30.19 1022 10 16 N/A

Powered by AerisWeather